FW9837 Weather Reports


Display with metric or nautical units.
time (UTC)temp
F
wind
direction
speed
MPH
gust
MPH
rain 1hr
in
rain 24hr
in
rain mn
in
humidity
%
barometer
mb
20260507064653 46 0 4.0 7.0 0.01 0.57 0.07 95 1011.4
20260507064152 46 20 4.0 7.0 0.01 0.57 0.07 95 1011.4
20260507063648 46 13 4.0 7.0 0.01 0.58 0.07 95 1011.2
20260507063135 46 46 4.0 9.0 0.01 0.59 0.07 95 1011.2
20260507062634 46 15 4.0 9.0 0.01 0.60 0.07 95 1011.1
20260507062123 46 18 4.0 8.0 0.01 0.61 0.07 95 1011.1
20260507061617 46 0 4.0 10.0 0.00 0.61 0.06 95 1011.0
20260507061338 46 23 4.0 10.0 0.00 0.61 0.06 95 1010.9
20260507061324 46 350 4.0 7.0 0.00 0.61 0.06 95 1010.7
20260507060108 46 36 4.0 7.0 0.00 0.62 0.06 95 1010.7
20260507055557 46 17 3.0 7.0 0.00 0.63 0.06 95 1010.6
20260507055352 46 344 4.0 12.0 0.01 0.63 0.06 95 1010.6
20260507054542 46 5 5.0 12.0 0.01 0.64 0.06 95 1010.5
20260507054036 46 35 4.0 8.0 0.01 0.64 0.06 95 1010.4
20260507053849 46 0 4.0 8.0 0.01 0.65 0.06 95 1010.4
20260507053327 46 5 4.0 8.0 0.01 0.65 0.06 95 1010.3
20260507052828 46 343 5.0 10.0 0.01 0.66 0.06 95 1010.2
20260507052011 46 13 5.0 10.0 0.01 0.67 0.06 95 1010.2
20260507051820 46 25 4.0 8.0 0.01 0.68 0.06 95 1010.2
20260507051312 46 355 4.0 9.0 0.01 0.69 0.06 95 1010.2
20260507050454 46 342 3.0 9.0 0.01 0.69 0.06 95 1010.1
20260507045951 46 355 3.0 6.0 0.01 0.70 0.06 95 1010.1
20260507045445 46 20 4.0 8.0 0.00 0.70 0.06 95 1010.0
20260507045235 46 15 4.0 8.0 0.01 0.71 0.06 95 1010.0
20260507044429 46 327 3.0 7.0 0.01 0.72 0.06 95 1009.9
20260507043927 46 322 3.0 7.0 0.01 0.72 0.06 95 1009.8
20260507043424 46 0 4.0 8.0 0.01 0.73 0.06 95 1009.8
20260507042912 47 9 4.0 8.0 0.01 0.74 0.06 95 1009.7
20260507042713 47 15 4.0 8.0 0.02 0.75 0.06 95 1009.7
20260507041859 47 317 5.0 8.0 0.02 0.76 0.06 95 1009.6
20260507041357 47 350 5.0 12.0 0.02 0.76 0.06 95 1009.6
20260507040852 47 11 5.0 12.0 0.02 0.77 0.06 95 1009.6
20260507040353 47 0 5.0 10.0 0.02 0.78 0.06 95 1009.5
20260507040200 47 334 4.0 9.0 0.02 0.79 0.06 95 1009.5
20260507035329 47 355 4.0 9.0 0.01 0.79 0.06 95 1009.5
20260507034827 47 347 4.0 9.0 0.01 0.80 0.05 95 1009.5
20260507034319 47 335 3.0 7.0 0.01 0.80 0.05 95 1009.4
20260507033818 47 15 3.0 7.0 0.01 0.80 0.05 95 1009.4
20260507033621 47 293 3.0 7.0 0.01 0.81 0.05 95 1009.4
20260507032800 47 329 4.0 7.0 0.01 0.82 0.05 95 1009.3
20260507032258 47 343 4.0 9.0 0.00 0.82 0.04 95 1009.3
20260507031751 47 330 3.0 8.0 0.01 0.82 0.04 95 1009.3
20260507031246 47 342 3.0 7.0 0.01 0.83 0.04 95 1009.2
20260507030736 47 336 3.0 7.0 0.01 0.83 0.04 95 1009.2
20260507030229 47 346 3.0 6.0 0.01 0.84 0.04 95 1009.2
20260507025844 47 336 2.0 7.0 0.01 0.85 0.04 95 1009.1
20260507025818 47 339 3.0 7.0 0.01 0.84 0.04 95 1009.1
20260507025008 47 328 3.0 8.0 0.01 0.86 0.04 95 1009.1
20260507024504 47 336 3.0 8.0 0.01 0.86 0.04 95 1009.0
20260507023657 47 310 2.0 6.0 0.01 0.87 0.04 95 1009.0
20260507023156 47 320 2.0 6.0 0.01 0.87 0.04 95 1009.0
20260507022650 47 318 2.0 5.0 0.01 0.87 0.04 95 1009.0
20260507022143 47 333 3.0 6.0 0.01 0.88 0.04 95 1008.9
20260507021637 47 328 3.0 7.0 0.00 0.88 0.03 95 1009.0
20260507021128 47 16 4.0 7.0 0.00 0.88 0.03 95 1008.9
20260507020625 47 355 4.0 10.0 0.00 0.89 0.03 95 1008.9
20260507020522 47 0 3.0 10.0 0.00 0.89 0.03 95 1008.8
20260507015613 47 13 3.0 7.0 0.00 0.90 0.03 95 1008.7
20260507015108 47 11 4.0 10.0 0.00 0.90 0.03 95 1008.7
20260507014916 47 11 4.0 12.0 0.00 0.91 0.03 95 1008.6
20260507014557 47 0 4.0 12.0 0.00 0.91 0.03 95 1008.7
20260507014354 47 11 4.0 12.0 0.00 0.91 0.03 95 1008.6
20260507013546 47 0 5.0 12.0 0.00 0.93 0.03 95 1008.6
20260507013342 47 340 4.0 8.0 0.00 0.94 0.03 95 1008.6
20260507012536 47 331 5.0 9.0 0.01 0.95 0.03 95 1008.5
20260507012028 47 337 4.0 12.0 0.01 0.96 0.03 95 1008.5
20260507011521 47 355 4.0 12.0 0.01 0.97 0.03 95 1008.4
20260507011015 47 17 4.0 8.0 0.01 0.98 0.03 95 1008.5
20260507010506 47 348 5.0 10.0 0.01 1.00 0.03 95 1008.5
20260507010335 47 275 4.0 10.0 0.01 1.01 0.03 95 1008.5
20260507005453 47 288 3.0 9.0 0.01 1.02 0.03 95 1008.5
20260507004951 47 338 3.0 10.0 0.01 1.02 0.03 95 1008.4
20260507004445 47 331 4.0 10.0 0.01 1.03 0.03 95 1008.4
20260507004104 47 288 4.0 12.0 0.02 1.05 0.03 95 1008.5
20260507004036 47 317 4.0 12.0 0.01 1.04 0.03 95 1008.5
20260507002937 47 35 3.0 8.0 0.01 1.05 0.03 95 1008.4
20260507002436 47 316 2.0 6.0 0.01 1.06 0.02 95 1008.4
20260507001936 47 338 3.0 8.0 0.01 1.06 0.02 95 1008.3
20260507001437 47 315 4.0 9.0 0.01 1.06 0.02 95 1008.3
20260507000937 47 324 4.0 9.0 0.02 1.07 0.02 95 1008.2
20260507000435 47 283 3.0 9.0 0.02 1.08 0.02 95 1008.3
20260506235935 47 272 3.0 7.0 0.02 1.09 0.02 95 1008.2
20260506235436 47 316 3.0 8.0 0.02 1.09 0.02 95 1008.3
20260506234936 47 333 4.0 12.0 0.02 1.09 0.02 95 1008.3
20260506234438 47 331 5.0 12.0 0.02 1.09 0.02 95 1008.3
20260506233938 47 308 4.0 12.0 0.02 1.10 0.02 95 1008.3
20260506233433 47 19 3.0 9.0 0.02 1.09 0.02 95 1008.2
20260506232933 47 329 3.0 7.0 0.02 1.09 0.02 95 1008.2
20260506232432 47 345 3.0 7.0 0.02 1.10 0.02 95 1008.1
20260506231933 47 293 3.0 8.0 0.02 1.10 0.02 95 1008.2
20260506231432 47 333 3.0 6.0 0.02 1.10 0.02 95 1008.2
20260506230924 47 321 3.0 8.0 0.01 1.09 0.01 95 1008.2
20260506230424 47 322 4.0 9.0 0.01 1.09 0.01 95 1008.2
20260506230234 47 323 3.0 9.0 0.01 1.09 0.01 95 1008.1
20260506225424 47 273 4.0 9.0 0.01 1.09 0.01 95 1008.2
20260506225222 47 341 5.0 11.0 0.01 1.09 0.01 95 1008.1
20260506224425 47 311 4.0 11.0 0.01 1.09 0.01 95 1008.1
20260506223924 47 333 4.0 10.0 0.01 1.09 0.01 95 1008.1
20260506223424 47 331 4.0 10.0 0.01 1.09 0.01 95 1008.0
20260506222927 47 268 4.0 10.0 0.01 1.09 0.00 95 1008.0
20260506222424 47 348 3.0 10.0 0.01 1.09 0.00 95 1008.0
20260506221922 47 334 2.0 6.0 0.01 1.09 0.00 95 1008.0
20260506221425 47 338 3.0 9.0 0.01 1.09 0.00 95 1008.0
20260506221208 47 322 3.0 9.0 0.01 1.09 0.00 95 1008.0
20260506220422 47 308 3.0 8.0 0.01 1.09 0.00 95 1008.0
20260506215924 47 325 3.0 8.0 0.02 1.09 1.09 95 1007.9
20260506215420 47 288 3.0 6.0 0.02 1.09 1.09 95 1008.0
20260506215209 47 344 3.0 7.0 0.02 1.09 1.09 95 1008.0
20260506214719 47 302 3.0 8.0 0.02 1.09 1.09 95 1007.9
20260506213911 47 263 3.0 8.0 0.02 1.09 1.09 95 1007.9
20260506213411 47 313 4.0 7.0 0.02 1.08 1.08 95 1007.8
20260506213031 47 281 3.0 7.0 0.02 1.08 1.08 95 1007.8
20260506213004 47 323 4.0 7.0 0.02 1.08 1.08 95 1007.8
20260506211908 47 306 3.0 7.0 0.02 1.08 1.08 95 1007.7
20260506211411 47 265 4.0 7.0 0.02 1.08 1.08 95 1007.7
20260506210943 47 278 3.0 7.0 0.03 1.07 1.07 95 1007.6
20260506210908 47 308 3.0 6.0 0.03 1.08 1.08 95 1007.6
20260506210825 47 290 3.0 7.0 0.03 1.08 1.08 95 1007.6
20260506210727 47 278 3.0 7.0 0.03 1.07 1.07 95 1007.6
20260506205408 47 296 3.0 7.0 0.03 1.07 1.07 95 1007.5
20260506204912 47 285 3.0 7.0 0.04 1.07 1.07 95 1007.6
20260506204412 47 276 3.0 6.0 0.03 1.06 1.06 95 1007.6
20260506203914 47 265 3.0 6.0 0.03 1.06 1.06 95 1007.5
20260506203423 47 293 3.0 6.0 0.04 1.06 1.06 95 1007.5
20260506202912 47 291 2.0 5.0 0.04 1.06 1.06 95 1007.5
20260506202349 47 287 3.0 8.0 0.05 1.06 1.06 95 1007.5
20260506201844 47 284 3.0 8.0 0.04 1.06 1.06 95 1007.4
20260506201723 47 309 3.0 8.0 0.04 1.06 1.06 95 1007.4
20260506201209 47 338 2.0 8.0 0.03 1.05 1.05 95 1007.4
20260506200645 47 294 3.0 6.0 0.04 1.05 1.05 95 1007.4
20260506195828 47 342 3.0 6.0 0.03 1.04 1.04 95 1007.3
20260506195328 47 328 3.0 9.0 0.04 1.04 1.04 95 1007.4
20260506194824 47 311 3.0 9.0 0.03 1.03 1.03 95 1007.4
20260506194326 47 338 4.0 8.0 0.03 1.03 1.03 95 1007.3
20260506194148 47 347 4.0 9.0 0.02 1.02 1.03 95 1007.3
20260506193323 47 17 4.0 10.0 0.02 1.02 1.02 95 1007.2
20260506192827 47 291 4.0 11.0 0.02 1.02 1.02 95 1007.2
20260506192615 47 304 5.0 11.0 0.02 1.02 1.02 95 1007.2
20260506191822 47 336 5.0 11.0 0.02 1.02 1.02 95 1007.1
20260506191324 47 336 5.0 12.0 0.02 1.02 1.02 95 1007.0
20260506190824 47 342 4.0 12.0 0.02 1.02 1.02 95 1006.9
20260506190325 47 317 4.0 10.0 0.02 1.01 1.01 95 1006.8
20260506185821 47 340 5.0 10.0 0.02 1.01 1.01 95 1006.7
20260506185515 47 338 5.0 11.0 0.01 1.00 1.00 95 1006.7
20260506185429 47 320 5.0 11.0 0.01 1.00 1.00 95 1006.7
20260506184320 47 323 4.0 10.0 0.01 1.00 1.00 95 1006.6
20260506183821 47 330 4.0 10.0 0.01 1.00 1.00 95 1006.6
20260506183319 47 345 4.0 9.0 0.02 1.00 1.00 95 1006.5
20260506182818 47 317 5.0 10.0 0.02 1.00 1.00 95 1006.6
20260506182617 47 330 4.0 10.0 0.02 1.00 1.00 95 1006.4
20260506181824 47 342 3.0 10.0 0.02 1.00 1.00 95 1006.4
20260506181315 47 332 4.0 8.0 0.02 1.00 1.00 95 1006.3
20260506180805 47 9 4.0 8.0 0.01 0.99 0.99 95 1006.3
20260506180250 47 349 4.0 10.0 0.02 0.99 0.99 95 1006.4
20260506175737 47 336 5.0 10.0 0.02 0.99 0.99 95 1006.3
20260506175232 47 15 4.0 9.0 0.02 0.99 0.99 95 1006.3
20260506174733 47 346 5.0 12.0 0.02 0.99 0.99 95 1006.3
20260506174227 47 336 5.0 12.0 0.02 0.99 0.99 95 1006.2
20260506173730 47 305 4.0 11.0 0.02 0.98 0.98 95 1006.2
20260506173229 47 0 5.0 10.0 0.02 0.98 0.98 95 1006.2
20260506172729 47 348 5.0 10.0 0.02 0.98 0.98 95 1006.1
20260506172230 47 342 5.0 11.0 0.02 0.98 0.98 95 1006.1
20260506171728 47 327 5.0 11.0 0.02 0.98 0.98 95 1006.1
20260506171231 47 336 5.0 11.0 0.03 0.98 0.98 95 1006.1
20260506170730 47 13 5.0 13.0 0.02 0.98 0.98 95 1006.0
20260506170216 47 344 5.0 13.0 0.03 0.98 0.98 95 1006.0
20260506165701 47 315 5.0 10.0 0.04 0.98 0.98 95 1006.0
20260506165514 47 318 4.0 10.0 0.05 0.98 0.98 95 1006.0
20260506164707 48 334 4.0 9.0 0.06 0.98 0.98 95 1006.0
20260506164204 48 5 4.0 9.0 0.06 0.98 0.98 95 1006.0
20260506163703 48 355 4.0 9.0 0.06 0.97 0.97 95 1006.0
20260506163513 48 355 4.0 9.0 0.07 0.97 0.97 95 1006.0
20260506162705 48 355 5.0 11.0 0.09 0.97 0.97 95 1005.9
20260506162206 48 329 5.0 11.0 0.09 0.96 0.96 95 1005.9
20260506161715 48 338 5.0 11.0 0.09 0.96 0.96 95 1005.9
20260506161210 48 306 4.0 11.0 0.09 0.95 0.95 95 1005.8
20260506160648 48 344 5.0 11.0 0.09 0.95 0.95 95 1005.9
20260506160143 47 327 6.0 11.0 0.09 0.94 0.94 95 1005.9
20260506155632 47 339 6.0 11.0 0.08 0.94 0.94 95 1005.9
20260506155411 47 337 6.0 14.0 0.06 0.91 0.91 95 1005.9
20260506155321 47 345 7.0 12.0 0.07 0.93 0.93 95 1005.9
20260506154724 47 0 6.0 13.0 0.07 0.92 0.92 95 1005.9
20260506153632 47 11 7.0 15.0 0.06 0.91 0.91 95 1005.9
20260506153130 47 355 6.0 15.0 0.05 0.89 0.90 95 1005.9
20260506152630 47 10 6.0 12.0 0.04 0.88 0.89 95 1005.9
20260506152133 47 346 6.0 11.0 0.03 0.87 0.87 95 1005.9
20260506151626 48 338 6.0 12.0 0.02 0.87 0.87 95 1005.9
20260506151126 48 337 5.0 12.0 0.03 0.87 0.87 95 1005.9
20260506150627 48 5 5.0 12.0 0.02 0.86 0.87 95 1005.8
20260506150615 48 0 6.0 13.0 0.02 0.86 0.86 95 1005.8
20260506145626 48 13 6.0 13.0 0.03 0.86 0.86 95 1005.8
20260506145125 48 346 6.0 13.0 0.03 0.86 0.86 95 1005.7
20260506144638 48 313 6.0 13.0 0.02 0.85 0.85 95 1005.7
20260506144127 48 338 6.0 13.0 0.02 0.85 0.85 95 1005.7
20260506143627 48 355 5.0 12.0 0.03 0.85 0.85 95 1005.6
20260506143122 48 349 4.0 12.0 0.02 0.84 0.84 95 1005.7
20260506142611 48 337 4.0 8.0 0.02 0.84 0.84 95 1005.7
20260506142111 48 333 5.0 11.0 0.03 0.84 0.84 95 1005.7
20260506141611 48 5 5.0 11.0 0.03 0.84 0.84 95 1005.7
20260506141110 48 348 4.0 8.0 0.03 0.83 0.83 95 1005.6
20260506140611 48 335 4.0 9.0 0.04 0.83 0.83 95 1005.6
20260506140415 48 332 5.0 9.0 0.04 0.83 0.83 95 1005.6
20260506135610 48 321 4.0 8.0 0.04 0.83 0.83 95 1005.6
20260506135110 48 337 4.0 11.0 0.04 0.83 0.83 95 1005.5
20260506134611 48 355 5.0 11.0 0.05 0.83 0.83 95 1005.5
20260506134411 48 334 5.0 11.0 0.05 0.83 0.83 95 1005.5
20260506133553 48 355 4.0 9.0 0.05 0.82 0.82 95 1005.5
20260506133042 48 5 4.0 9.0 0.05 0.82 0.82 95 1005.5
20260506132843 48 321 4.0 9.0 0.04 0.81 0.81 95 1005.5
20260506132042 48 21 4.0 8.0 0.05 0.81 0.81 95 1005.6
20260506131542 48 337 3.0 8.0 0.05 0.81 0.81 95 1005.5
20260506131353 48 13 3.0 8.0 0.05 0.80 0.80 95 1005.5
20260506130543 48 355 4.0 8.0 0.05 0.80 0.80 95 1005.5
20260506130041 48 348 4.0 8.0 0.05 0.80 0.80 95 1005.4
20260506125542 48 350 4.0 8.0 0.05 0.79 0.79 95 1005.4
20260506125045 48 331 4.0 8.0 0.06 0.79 0.79 95 1005.4
20260506124853 48 340 4.0 8.0 0.06 0.78 0.78 95 1005.4
20260506124025 48 355 4.0 8.0 0.06 0.78 0.78 95 1005.4
20260506123515 48 340 3.0 7.0 0.06 0.77 0.77 95 1005.2
20260506123015 47 333 3.0 7.0 0.06 0.77 0.77 95 1005.3
20260506122516 47 336 4.0 7.0 0.06 0.76 0.77 95 1005.2
20260506122015 47 355 4.0 7.0 0.06 0.76 0.76 95 1005.1
20260506121514 47 334 3.0 7.0 0.06 0.76 0.76 95 1005.1
20260506121016 47 350 3.0 7.0 0.06 0.76 0.76 95 1005.1
20260506120516 47 5 3.0 7.0 0.06 0.75 0.75 95 1005.1
20260506120015 47 338 3.0 8.0 0.06 0.75 0.75 95 1005.2
20260506115516 47 5 3.0 8.0 0.05 0.74 0.74 95 1005.2
20260506115010 47 333 3.0 7.0 0.05 0.73 0.73 95 1005.2
20260506114502 47 350 4.0 7.0 0.04 0.72 0.72 95 1005.1
20260506113950 47 0 4.0 7.0 0.03 0.72 0.72 95 1005.2
20260506113449 47 335 4.0 7.0 0.03 0.72 0.72 95 1005.2
20260506112949 47 355 3.0 7.0 0.02 0.71 0.71 95 1005.2
20260506112746 47 342 2.0 7.0 0.02 0.71 0.71 95 1005.2
20260506111944 47 11 3.0 7.0 0.02 0.70 0.70 95 1005.2
20260506111446 46 339 2.0 7.0 0.02 0.70 0.70 95 1005.1
20260506110946 46 340 2.0 7.0 0.02 0.70 0.70 95 1005.0
20260506110446 46 355 4.0 9.0 0.02 0.69 0.69 95 1005.0
20260506105944 46 334 5.0 10.0 0.02 0.69 0.69 95 1004.9
20260506105446 46 336 5.0 10.0 0.02 0.69 0.69 95 1004.9
20260506105123 46 5 5.0 8.0 0.01 0.69 0.69 95 1005.0
20260506105040 46 5 5.0 9.0 0.01 0.69 0.69 95 1005.0
20260506103945 46 0 4.0 11.0 0.01 0.69 0.69 95 1004.9
20260506103445 46 45 4.0 12.0 0.01 0.69 0.69 95 1005.0
20260506102936 46 5 4.0 12.0 0.01 0.69 0.69 95 1004.9
20260506102429 46 5 4.0 10.0 0.01 0.69 0.69 95 1004.9
20260506101922 46 344 4.0 8.0 0.02 0.69 0.69 95 1004.9
20260506101422 46 15 4.0 8.0 0.01 0.68 0.68 95 1004.9
20260506100917 46 12 4.0 8.0 0.01 0.68 0.68 95 1004.9
20260506100741 46 9 4.0 8.0 0.01 0.68 0.68 95 1004.9
20260506100325 46 348 5.0 13.0 0.02 0.68 0.68 95 1004.7
20260506095731 46 20 5.0 13.0 0.02 0.68 0.68 95 1004.7
20260506094911 46 292 4.0 9.0 0.02 0.68 0.68 95 1004.8
20260506094411 46 49 5.0 9.0 0.02 0.68 0.68 95 1004.7
20260506093911 46 13 4.0 9.0 0.02 0.68 0.68 95 1004.7
20260506093413 46 17 4.0 8.0 0.02 0.68 0.68 95 1004.6
20260506093235 46 12 5.0 10.0 0.02 0.68 0.68 95 1004.6
20260506092406 46 322 6.0 11.0 0.02 0.68 0.68 95 1004.6
20260506091906 46 0 5.0 11.0 0.02 0.67 0.67 95 1004.6
20260506091519 46 335 5.0 9.0 0.02 0.66 0.66 95 1004.5
20260506091515 46 348 4.0 9.0 0.02 0.67 0.67 95 1004.5
20260506091506 46 342 4.0 7.0 0.02 0.67 0.67 95 1004.5
20260506091445 46 22 4.0 8.0 0.02 0.67 0.67 95 1004.6
20260506085406 46 0 5.0 10.0 0.02 0.66 0.66 95 1004.5
20260506084903 45 31 5.0 10.0 0.02 0.66 0.66 95 1004.5
20260506084401 45 342 5.0 10.0 0.02 0.66 0.66 95 1004.5
20260506084216 45 337 5.0 10.0 0.02 0.65 0.65 95 1004.5
20260506083359 45 337 5.0 10.0 0.02 0.65 0.65 95 1004.4
20260506083345 45 5 5.0 10.0 0.03 0.65 0.65 95 1004.4
20260506082630 45 18 5.0 9.0 0.03 0.65 0.65 95 1004.4
20260506081856 45 9 5.0 9.0 0.03 0.65 0.65 95 1004.4
20260506081721 45 30 5.0 11.0 0.03 0.65 0.65 95 1004.3
20260506080853 45 319 5.0 11.0 0.04 0.65 0.65 95 1004.2
20260506080353 45 355 5.0 10.0 0.04 0.65 0.65 95 1004.3
20260506072838 45 5 5.0 10.0 0.06 0.62 0.63 95 1004.1
20260506072332 45 355 4.0 10.0 0.06 0.62 0.62 95 1004.2
20260506071823 45 5 5.0 12.0 0.06 0.61 0.62 95 1004.2
20260506071311 45 355 5.0 12.0 0.07 0.61 0.61 94 1004.2
20260506070805 45 327 5.0 13.0 0.07 0.61 0.61 94 1004.2
20260506070751 45 336 5.0 13.0 0.07 0.60 0.60 94 1004.1
20260506070410 45 11 6.0 13.0 0.08 0.61 0.61 94 1004.2